[[{"header":{"parameterUnit":"m.s-1","parameterCategory":1,"la1":30.2991,"la2":30.254,"lo1":-89.0895,"lo2":-89.0444,"dy":0.0017,"dx":0.0017,"nx":28,"ny":28,"refTime":"2025-06-21T09:00:00:Z","depth":0,"parameterNumber":2,"parameterNumberName":"U-component_of_WINDS"},"data":[0,0,0,0,0,0,0,0,0,0,0,0,0,0,0,0,0,0,0,0,0,0,0,0,0,0,0,0,0,0,0,0,0,0,0,0,0,0,0,0,0,0,0,0,0,0,0,0,0,0,0,0,0,0,0,0,0,0,1.2622,1.2622,0,1.2701,1.2702,1.2703,1.2709,1.2708,1.2707,1.2706,1.2787,1.279,1.2793,0,0,0,0,0,0,0,0,0,0,0,0,0,1.2473,1.2476,1.2621,1.2623,1.2624,1.2701,1.2702,1.2703,1.2709,1.2708,1.2707,1.2706,1.2786,1.279,1.2793,0,0,0,0,0,0,0,0,0,0,0,0,0,1.2544,1.2477,1.2621,1.2636,1.2638,1.2701,1.2702,1.2704,1.2709,1.2708,1.2707,1.2706,1.2785,1.279,1.2794,1.2848,0,0,1.2808,1.2809,0,0,0,0,0,0,0,0,1.254,1.2549,1.2633,1.2635,1.2637,1.2694,1.268,1.2752,1.271,1.2682,1.2706,1.2705,1.2757,1.2764,1.2782,1.2852,1.2855,1.2808,1.2811,1.2813,1.2814,0,0,0,0,0,0,0,1.2535,1.2546,1.2653,1.2634,1.2637,1.2638,1.2647,1.2693,1.2726,1.2685,1.2685,1.2695,1.2758,1.2777,1.2784,1.2856,1.2808,1.2812,1.2815,1.2816,1.2974,1.2975,0,0,0,0,0,0,1.2527,1.2542,1.2651,1.2655,1.2584,1.2642,1.2651,1.2677,1.2726,1.2732,1.2696,1.2695,1.2771,1.2779,1.2787,1.2852,1.2813,1.2817,1.2819,1.2972,1.2974,1.2976,0,0,0,0,0,0,1.2524,1.2537,1.2647,1.2599,1.2613,1.2646,1.2675,1.2679,1.2699,1.2734,1.274,1.2709,1.277,1.278,1.2832,1.2855,1.2819,1.2823,1.297,1.2973,1.2975,1.2984,0,0,0,0,0,0,1.252,1.2536,1.2557,1.2599,1.2615,1.2692,1.2676,1.2682,1.2706,1.2706,1.2748,1.2754,1.277,1.2826,1.2837,1.286,1.2826,1.2968,1.2971,1.2974,1.2982,1.2986,1.299,0,0,0,0,0,1.2514,1.2556,1.2558,1.2571,1.2643,1.2693,1.2703,1.272,1.2708,1.2729,1.2752,1.2753,1.2851,1.2831,1.2844,1.2869,1.2967,1.2971,1.2974,1.298,1.2985,1.299,0,0,0,0,0,0,1.2515,1.2562,1.2564,1.2621,1.2653,1.2694,1.2721,1.2725,1.2761,1.2759,1.2779,1.2788,1.2839,1.286,1.2837,1.2923,1.2908,1.2914,1.2908,1.2913,1.2918,1.2911,1.283,0,0,0,0,0,1.2522,1.256,1.2599,1.2645,1.2661,1.2688,1.2711,1.2722,1.2756,1.2769,1.2796,1.2829,1.2867,1.2891,1.2929,1.2985,1.2994,1.3009,1.3013,1.3016,1.3021,1.3051,1.3058,1.2987,1.2987,1.2987,0,0,1.2536,1.2566,1.2589,1.2646,1.2672,1.271,1.27,1.2741,1.2769,1.2775,1.2826,1.2847,1.2885,1.2939,1.2964,1.2957,1.3042,1.302,1.3023,1.3026,1.3055,1.3062,1.3068,1.2989,1.2988,1.2988,0,0,1.2581,1.2609,1.265,1.2676,1.2716,1.2734,1.2744,1.2785,1.2799,1.285,1.2856,1.289,1.2955,1.2981,1.3004,1.3059,1.3061,1.3071,1.3092,1.3121,1.3127,1.3132,1.3151,1.3157,1.3075,1.3075,1.3075,0,1.2594,1.2652,1.267,1.2711,1.2735,1.2744,1.2785,1.281,1.286,1.2876,1.2868,1.295,1.2976,1.3036,1.305,1.3068,1.3079,1.3065,1.3125,1.313,1.3135,1.3153,1.316,1.3076,1.3076,1.3076,1.3076,0,1.2665,1.2705,1.2733,1.2781,1.2809,1.285,1.2874,1.29,1.2908,1.2927,1.2979,1.3011,1.3054,1.3069,1.3078,1.3131,1.3125,1.3121,1.3105,1.3142,1.3159,1.3166,1.3078,1.3077,1.3077,1.3077,0,0,1.2711,1.277,1.2779,1.2801,1.2846,1.2877,1.2918,1.2961,1.2982,1.3017,1.3051,1.3107,1.3103,1.3128,1.3139,1.3165,1.3206,1.3158,1.3159,1.3164,1.3265,1.3267,1.3275,1.3208,1.3209,1.321,1.3261,0,1.2761,1.2834,1.2852,1.2915,1.2952,1.296,1.2996,1.3027,1.3046,1.308,1.31,1.3139,1.3132,1.3146,1.3173,1.3195,1.3226,1.3192,1.3239,1.324,1.3228,1.3284,1.3286,1.3333,1.3268,1.3269,1.327,0,1.2828,1.2863,1.293,1.2969,1.2986,1.3017,1.3058,1.309,1.3126,1.3137,1.3166,1.3175,1.3217,1.3201,1.3259,1.3236,1.3256,1.327,1.3272,1.3276,1.3257,1.3288,1.3348,1.3354,1.3281,1.328,1.328,0,1.2853,1.2918,1.2966,1.2985,1.3033,1.3055,1.3076,1.311,1.3134,1.3169,1.3185,1.3225,1.3247,1.3277,1.3296,1.3283,1.3353,1.3338,1.3363,1.3363,1.3376,1.3375,1.3439,1.3392,1.3392,1.3392,1.3391,0,1.2906,1.2945,1.2979,1.3008,1.3053,1.3073,1.3117,1.3138,1.3168,1.3201,1.3212,1.3242,1.3267,1.3301,1.3316,1.3362,1.3372,1.3382,1.3385,1.338,1.3379,1.3393,1.339,1.3393,1.3393,1.3393,1.3392,0,1.2941,1.2965,1.3018,1.3059,1.307,1.3101,1.3136,1.3165,1.3184,1.3226,1.3237,1.3268,1.3308,1.3331,1.3382,1.3392,1.3443,1.3445,1.3431,1.3432,1.3455,1.3452,1.353,1.354,1.3487,1.3487,1.3488,0,1.2972,1.3003,1.3048,1.3071,1.3092,1.3129,1.3154,1.3176,1.3201,1.3244,1.3267,1.3309,1.3343,1.3407,1.3433,1.3472,1.3475,1.35,1.3481,1.3475,1.3474,1.3471,1.3474,1.3502,1.3503,1.3503,1.3503,0,1.3024,1.3035,1.3071,1.3111,1.314,1.3173,1.3205,1.3223,1.325,1.3278,1.332,1.3346,1.3399,1.3439,1.348,1.3501,1.3507,1.3509,1.3517,1.3511,1.3501,1.3506,1.3438,1.3507,1.3507,1.3506,1.3506,1.3506,1.3058,1.3085,1.3121,1.3161,1.3187,1.3217,1.3246,1.3269,1.3304,1.3349,1.3359,1.3403,1.3438,1.3493,1.3516,1.355,1.3545,1.3557,1.3559,1.3561,1.3561,1.3497,1.3558,1.3557,1.3557,1.3557,1.3557,0,1.3109,1.3133,1.3169,1.3214,1.3245,1.3248,1.3284,1.3309,1.3348,1.338,1.3413,1.3461,1.3501,1.353,1.357,1.3592,1.3595,1.3602,1.36,1.3604,1.3564,1.3553,1.3598,1.3598,1.3598,1.3598,1.3598,1.3598,1.3139,1.3186,1.3201,1.3261,1.3284,1.3327,1.3347,1.3375,1.34,1.3453,1.3486,1.3506,1.3536,1.3579,1.3615,1.3623,1.3637,1.3643,1.365,1.3612,1.3607,1.3603,1.3592,1.3646,1.3646,1.3688,1.3688,1.3688]},{"header":{"parameterUnit":"m.s-1","parameterCategory":1,"la1":30.2991,"la2":30.254,"lo1":-89.0895,"lo2":-89.0444,"dy":0.0017,"dx":0.0017,"nx":28,"ny":28,"refTime":"2025-06-21T09:00:00:Z","depth":0,"parameterNumber":3,"parameterNumberName":"V-component_of_WINDS"},"data":[0,0,0,0,0,0,0,0,0,0,0,0,0,0,0,0,0,0,0,0,0,0,0,0,0,0,0,0,0,0,0,0,0,0,0,0,0,0,0,0,0,0,0,0,0,0,0,0,0,0,0,0,0,0,0,0,0,0,3.8667,3.8667,0,3.8661,3.866,3.866,3.8598,3.8597,3.8595,3.8594,3.8587,3.8588,3.8589,0,0,0,0,0,0,0,0,0,0,0,0,0,3.8627,3.8628,3.8667,3.8667,3.8667,3.8661,3.866,3.866,3.8598,3.8597,3.8595,3.8593,3.8586,3.8588,3.8589,0,0,0,0,0,0,0,0,0,0,0,0,0,3.8635,3.8628,3.8667,3.8636,3.8633,3.8661,3.866,3.866,3.8599,3.8597,3.8594,3.8592,3.8586,3.8588,3.859,3.8648,0,0,3.8595,3.8596,0,0,0,0,0,0,0,0,3.8634,3.8636,3.864,3.8638,3.8635,3.8628,3.8644,3.8656,3.8599,3.8612,3.8594,3.8591,3.8602,3.8603,3.8606,3.8647,3.8647,3.8595,3.8597,3.8597,3.8598,0,0,0,0,0,0,0,3.8634,3.8636,3.8665,3.864,3.8637,3.8622,3.862,3.8646,3.862,3.861,3.8606,3.8606,3.86,3.8605,3.8606,3.8647,3.8595,3.8597,3.8598,3.8599,3.8734,3.8736,0,0,0,0,0,0,3.8638,3.8636,3.8665,3.8664,3.8629,3.8624,3.8623,3.8632,3.862,3.8615,3.8608,3.8603,3.8603,3.8604,3.8605,3.8672,3.8597,3.8599,3.86,3.8732,3.8735,3.8737,0,0,0,0,0,0,3.8637,3.8641,3.8665,3.8649,3.8651,3.8627,3.8639,3.8633,3.8638,3.8618,3.8613,3.8617,3.8601,3.8603,3.8637,3.867,3.86,3.8602,3.8729,3.8733,3.8736,3.8805,0,0,0,0,0,0,3.8636,3.8641,3.8663,3.865,3.8652,3.8697,3.8641,3.8635,3.8641,3.8635,3.8625,3.8621,3.8599,3.8635,3.8639,3.8672,3.8603,3.8726,3.873,3.8735,3.88,3.8811,3.882,0,0,0,0,0,3.8635,3.8683,3.8664,3.8668,3.8679,3.8699,3.87,3.8674,3.8644,3.8666,3.8653,3.8622,3.8667,3.8639,3.8643,3.8677,3.8723,3.8729,3.8734,3.8795,3.8809,3.882,0,0,0,0,0,0,3.87,3.8681,3.866,3.8705,3.8704,3.8689,3.8715,3.8689,3.8697,3.8691,3.8658,3.8656,3.8696,3.869,3.866,3.8732,3.869,3.8696,3.8734,3.8747,3.8757,3.8757,3.8605,0,0,0,0,0,3.872,3.8738,3.872,3.8762,3.8762,3.8739,3.8747,3.8727,3.8725,3.8724,3.8714,3.8713,3.8727,3.8737,3.8748,3.8799,3.8796,3.8824,3.8835,3.8843,3.8849,3.8874,3.8887,3.8755,3.8755,3.8755,0,0,3.876,3.8752,3.8766,3.8774,3.8771,3.8791,3.8739,3.8762,3.8776,3.8728,3.8759,3.8752,3.8749,3.8792,3.881,3.8788,3.8885,3.885,3.8857,3.8858,3.8881,3.8894,3.8905,3.8759,3.8758,3.8758,0,0,3.8844,3.884,3.8874,3.8872,3.8868,3.8852,3.8861,3.8849,3.8842,3.8874,3.8838,3.8854,3.8879,3.8878,3.8881,3.8965,3.8936,3.897,3.9022,3.9048,3.9058,3.9067,3.9096,3.9107,3.8976,3.8976,3.8976,0,3.8895,3.8923,3.8894,3.8919,3.8924,3.8881,3.8915,3.8915,3.8915,3.8919,3.8895,3.8925,3.892,3.8962,3.8982,3.8986,3.8994,3.897,3.9059,3.9068,3.9075,3.9103,3.9114,3.898,3.8979,3.8979,3.8979,0,3.8985,3.9005,3.9033,3.9034,3.9042,3.9071,3.9047,3.9059,3.9038,3.9025,3.9057,3.905,3.9059,3.9068,3.9048,3.9107,3.9093,3.9065,3.9021,3.9092,3.9117,3.9128,3.8986,3.8984,3.8983,3.8982,0,0,3.9108,3.9094,3.9104,3.9104,3.9097,3.9112,3.9139,3.9148,3.9158,3.9161,3.9182,3.9205,3.9178,3.9181,3.9161,3.9184,3.9249,3.9152,3.9151,3.9169,3.9312,3.9333,3.9346,3.9231,3.9233,3.9234,3.9312,0,3.9188,3.9233,3.9209,3.9258,3.9275,3.9235,3.9259,3.9258,3.9246,3.926,3.9247,3.9263,3.9227,3.9229,3.925,3.9237,3.9277,3.9231,3.925,3.9251,3.9251,3.9359,3.9381,3.9455,3.9322,3.9324,3.9325,0,3.9286,3.9292,3.9343,3.9332,3.9339,3.9361,3.9366,3.938,3.9377,3.9368,3.9372,3.9346,3.9372,3.933,3.9366,3.9335,3.9341,3.9337,3.9339,3.9338,3.9291,3.936,3.9478,3.9488,3.934,3.9339,3.9338,0,3.937,3.9391,3.9423,3.9425,3.9413,3.9429,3.9426,3.9421,3.9427,3.9433,3.9437,3.9446,3.945,3.9458,3.9435,3.9407,3.9473,3.943,3.9465,3.9466,3.948,3.9479,3.9599,3.9487,3.9487,3.9486,3.9486,0,3.946,3.9492,3.946,3.9481,3.9516,3.9487,3.9523,3.9514,3.9511,3.9528,3.9495,3.9512,3.9482,3.9496,3.9479,3.9511,3.9513,3.9506,3.9501,3.9508,3.9509,3.9511,3.9505,3.9489,3.9489,3.9488,3.9488,0,3.9559,3.9539,3.9571,3.9558,3.9556,3.9582,3.957,3.9588,3.9575,3.9598,3.9602,3.9581,3.9596,3.9575,3.9588,3.9576,3.9619,3.9607,3.962,3.9616,3.9652,3.9649,3.9777,3.9791,3.9671,3.9672,3.9673,0,3.9617,3.9641,3.963,3.9639,3.9637,3.9653,3.966,3.9633,3.9641,3.964,3.9658,3.9671,3.9679,3.9705,3.9691,3.9701,3.9688,3.9732,3.9689,3.9696,3.9687,3.9686,3.9688,3.9741,3.9742,3.9743,3.9744,0,3.9722,3.9711,3.9722,3.973,3.9739,3.9743,3.9746,3.9755,3.9727,3.9739,3.9753,3.976,3.9773,3.9786,3.9792,3.9788,3.9762,3.9758,3.9767,3.9774,3.978,3.9776,3.9643,3.9755,3.9754,3.9753,3.9753,3.9752,3.9801,3.982,3.9816,3.9829,3.9828,3.9831,3.9847,3.9836,3.9848,3.9856,3.984,3.9859,3.9856,3.9861,3.986,3.9875,3.9856,3.9868,3.9871,3.9875,3.988,3.9779,3.9876,3.9876,3.9875,3.9875,3.9875,0,3.9904,3.9899,3.9911,3.9915,3.9926,3.99,3.9902,3.9912,3.9929,3.9928,3.9937,3.9954,3.9967,3.9954,3.9964,3.9978,3.9966,3.9981,3.9979,3.9978,3.9897,3.9888,3.9991,3.999,3.999,3.999,3.999,3.999,3.9958,3.9989,3.9977,4.0007,4.0002,4.002,4.0023,4.0025,4.0024,4.0045,4.0055,4.0047,4.0041,4.005,4.006,4.0056,4.0061,4.008,4.0072,3.9996,3.9984,3.9973,3.9965,4.0082,4.0082,4.0152,4.0152,4.0153]}]]